Weather History for Sulphur Springs, TX

Change the Weather History Date:

Wednesday, November 16, 2011

  Actual Average (KGVT) Record (KGVT)
Temperature  
Mean Temperature 60 °F -  
Max Temperature 68 °F 63 °F 78 °F (1999)
Min Temperature 51 °F 49 °F 30 °F (2014)
Degree Days  
Heating Degree Days 6    
Growing Degree Days 10 (Base 50)    
Moisture  
Dew Point 56 °F    
Average Humidity 82    
Maximum Humidity 100    
Minimum Humidity 62    
Precipitation  
Precipitation 0.00 in - - ()
Sea Level Pressure  
Sea Level Pressure 29.93 in    
Wind  
Wind Speed 6 mph (NNE)    
Max Wind Speed 25 mph    
Max Gust Speed 30 mph    
Visibility 8 miles    
Events      
Averages and records for this station are not official NWS values.
T = Trace of Precipitation, MM = Missing Value Source: NWS Daily Summary

Daily Weather History Graph

Daily Weather History Graph

Search for Another Location

Airport:

Trip Planner

Search our weather history database for the weather conditions in past years. The results will help you decide how hot, cold, wet, or windy it might be!

Date:

Astronomy

Nov. 16, 2011 Rise Set
Actual Time 6:54 AM CST 5:20 PM CST
Civil Twilight 6:27 AM CST 5:46 PM CST
Nautical Twilight 5:57 AM CST 6:16 PM CST
Astronomical Twilight 5:28 AM CST 6:45 PM CST
Moon 10:32 PM CST (11/16) 11:32 AM CST (11/16)
Length of Visible Light 11h 18m
Length of Day
10h 25m
Waning Gibbous, 70% of the Moon is Illuminated
Nov 16
Waning Gibbous
Nov 18
Last Quarter
Nov 25
New
Dec 2
First Quarter
Dec 10
Full

Hourly Weather History & Observations

Time (CST) Temp. Windchill Dew Point Humidity Pressure Visibility Wind Dir Wind Speed Gust Speed Precip Events Conditions
12:15 AM 64.4 °F - 62.6 °F 94% 29.76 in 7.0 mi Calm Calm - N/A   Clear
12:35 AM 64.4 °F - 62.6 °F 94% 29.77 in 7.0 mi Calm Calm - N/A   Clear
12:55 AM 64.4 °F - 62.6 °F 94% 29.76 in 5.0 mi Calm Calm - N/A   Clear
1:35 AM 64.4 °F - 62.6 °F 94% 29.76 in 3.0 mi Calm Calm - N/A   Overcast
1:55 AM 64.4 °F - 62.6 °F 94% 29.74 in 2.5 mi Calm Calm - N/A   Mist
2:15 AM 62.6 °F - 60.8 °F 94% 29.75 in 0.8 mi Calm Calm - N/A   Mist
2:35 AM 62.6 °F - 60.8 °F 94% 29.75 in 0.8 mi NNW 3.5 mph - N/A   Mostly Cloudy
2:55 AM 62.6 °F - 62.6 °F 100% 29.75 in 3.0 mi Calm Calm - N/A   Mostly Cloudy
3:15 AM 62.6 °F - 62.6 °F 100% 29.76 in 4.0 mi Calm Calm - N/A   Overcast
3:35 AM 62.6 °F - 62.6 °F 100% 29.76 in 4.0 mi Calm Calm - N/A   Overcast
3:55 AM 62.6 °F - 62.6 °F 100% 29.75 in 4.0 mi Calm Calm - N/A   Overcast
4:15 AM 64.4 °F - 62.6 °F 94% 29.76 in 4.0 mi Calm Calm - N/A   Overcast
4:35 AM 64.4 °F - 62.6 °F 94% 29.76 in 4.0 mi Calm Calm - N/A   Overcast
4:55 AM 64.4 °F - 62.6 °F 94% 29.77 in 4.0 mi Calm Calm - N/A   Overcast
5:15 AM 64.4 °F - 62.6 °F 94% 29.78 in 4.0 mi North 6.9 mph - N/A   Overcast
5:35 AM 64.4 °F - 62.6 °F 94% 29.79 in 3.0 mi NNE 6.9 mph - N/A   Overcast
5:55 AM 64.4 °F - 62.6 °F 94% 29.80 in 3.0 mi NNE 8.1 mph - N/A   Overcast
6:15 AM 64.4 °F - 62.6 °F 94% 29.81 in 4.0 mi NNE 6.9 mph - N/A   Overcast
6:35 AM 64.4 °F - 62.6 °F 94% 29.82 in 5.0 mi NNE 8.1 mph - N/A   Overcast
6:55 AM 64.4 °F - 62.6 °F 94% 29.83 in 5.0 mi NE 8.1 mph - N/A   Overcast
7:35 AM 64.4 °F - 62.6 °F 94% 29.85 in 7.0 mi NNE 4.6 mph - N/A   Overcast
8:15 AM 64.4 °F - 62.6 °F 94% 29.88 in 10.0 mi NNE 5.8 mph - N/A   Overcast
8:35 AM 64.4 °F - 60.8 °F 88% 29.89 in 10.0 mi NE 4.6 mph - N/A   Overcast
8:55 AM 64.4 °F - 60.8 °F 88% 29.90 in 10.0 mi NE 5.8 mph - N/A   Overcast
9:15 AM 64.4 °F - 59.0 °F 83% 29.91 in 10.0 mi ENE 10.4 mph 16.1 mph N/A   Overcast
9:35 AM 64.4 °F - 59.0 °F 83% 29.92 in 10.0 mi NE 6.9 mph - N/A   Overcast
9:55 AM 64.4 °F - 59.0 °F 83% 29.92 in 10.0 mi ENE 10.4 mph - N/A   Overcast
10:15 AM 64.4 °F - 59.0 °F 83% 29.93 in 10.0 mi ENE 6.9 mph - N/A   Overcast
10:35 AM 66.2 °F - 59.0 °F 78% 29.93 in 10.0 mi East 10.4 mph - N/A   Overcast
10:55 AM 68.0 °F - 59.0 °F 73% 29.93 in 10.0 mi East 10.4 mph - N/A   Overcast
11:15 AM 66.2 °F - 59.0 °F 78% 29.94 in 10.0 mi NE 6.9 mph - N/A   Overcast
11:35 AM 64.4 °F - 57.2 °F 77% 29.94 in 10.0 mi North 12.7 mph - N/A   Overcast
11:55 AM 64.4 °F - 57.2 °F 77% 29.93 in 10.0 mi NW 5.8 mph - N/A   Overcast
12:15 PM 66.2 °F - 59.0 °F 78% 29.93 in 10.0 mi NNW 4.6 mph - N/A   Overcast
12:35 PM 66.2 °F - 59.0 °F 78% 29.93 in 10.0 mi NE 6.9 mph - N/A   Overcast
12:55 PM 68.0 °F - 59.0 °F 73% 29.94 in 10.0 mi NE 5.8 mph - N/A   Overcast
1:15 PM 66.2 °F - 59.0 °F 78% 29.93 in 10.0 mi NNE 8.1 mph - N/A   Overcast
1:35 PM 64.4 °F - 57.2 °F 77% 29.94 in 10.0 mi NW 12.7 mph - N/A   Mostly Cloudy
1:55 PM 62.6 °F - 55.4 °F 77% 29.94 in 10.0 mi NNW 16.1 mph - N/A   Overcast
2:15 PM 62.6 °F - 55.4 °F 77% 29.95 in 10.0 mi North 21.9 mph - N/A   Mostly Cloudy
2:35 PM 60.8 °F - 53.6 °F 77% 29.97 in 10.0 mi NNW 25.3 mph - N/A   Overcast
2:55 PM 60.8 °F - 51.8 °F 72% 29.98 in 10.0 mi North 23.0 mph - N/A   Overcast
3:15 PM 59.0 °F - 50.0 °F 72% 29.99 in 10.0 mi North 19.6 mph 24.2 mph N/A   Overcast
3:35 PM 59.0 °F - 50.0 °F 72% 30.00 in 10.0 mi North 17.3 mph - N/A   Overcast
3:55 PM 59.0 °F - 50.0 °F 72% 30.02 in 10.0 mi North 20.7 mph - N/A   Overcast
4:15 PM 57.2 °F - 48.2 °F 72% 30.04 in 10.0 mi North 20.7 mph - N/A   Overcast
4:35 PM 55.4 °F - 46.4 °F 72% 30.05 in 10.0 mi North 20.7 mph 24.2 mph N/A   Overcast
4:55 PM 55.4 °F - 46.4 °F 72% 30.07 in 10.0 mi North 19.6 mph 25.3 mph N/A   Overcast
5:15 PM 55.4 °F - 46.4 °F 72% 30.09 in 10.0 mi North 19.6 mph 28.8 mph N/A   Overcast
5:35 PM 55.4 °F - 44.6 °F 67% 30.10 in 10.0 mi North 19.6 mph 27.6 mph N/A   Overcast
5:55 PM 53.6 °F - 44.6 °F 72% 30.12 in 10.0 mi North 21.9 mph 28.8 mph N/A   Overcast
6:15 PM 53.6 °F - 42.8 °F 67% 30.14 in 10.0 mi North 23.0 mph 29.9 mph N/A   Overcast
6:35 PM 51.8 °F - 42.8 °F 71% 30.16 in 10.0 mi NNE 21.9 mph 27.6 mph N/A   Overcast
6:55 PM 51.8 °F - 41.0 °F 67% 30.18 in 10.0 mi NNE 15.0 mph 29.9 mph N/A   Overcast
7:15 PM 51.8 °F - 41.0 °F 67% 30.20 in 10.0 mi NNE 16.1 mph 21.9 mph N/A   Overcast
7:35 PM 51.8 °F - 39.2 °F 62% 30.21 in 10.0 mi NNE 17.3 mph - N/A   Overcast
8:15 PM 51.8 °F - 41.0 °F 67% 30.23 in 10.0 mi NNE 12.7 mph 19.6 mph N/A   Overcast
8:55 PM 51.8 °F - 41.0 °F 67% 30.26 in 10.0 mi NNE 16.1 mph 19.6 mph N/A   Overcast
9:15 PM 51.8 °F - 37.4 °F 58% 30.28 in 10.0 mi NE 13.8 mph 23.0 mph N/A   Overcast
9:35 PM 50.0 °F - 37.4 °F 62% 30.30 in 10.0 mi NNE 9.2 mph - N/A   Overcast
9:55 PM 50.0 °F - 39.2 °F 66% 30.32 in 10.0 mi North 8.1 mph - N/A   Mostly Cloudy
10:15 PM 50.0 °F - 39.2 °F 66% 30.32 in 10.0 mi North 9.2 mph - N/A   Mostly Cloudy
10:35 PM 48.2 °F - 37.4 °F 66% 30.32 in 10.0 mi North 11.5 mph - N/A   Scattered Clouds
10:55 PM 46.4 °F 40.7 °F 35.6 °F 66% 30.33 in 10.0 mi North 12.7 mph - N/A   Mostly Cloudy
11:15 PM 46.4 °F 40.7 °F 32.0 °F 57% 30.34 in 10.0 mi North 12.7 mph - N/A   Mostly Cloudy
11:35 PM 46.4 °F 40.1 °F 32.0 °F 57% 30.35 in 10.0 mi North 15.0 mph 19.6 mph N/A   Scattered Clouds